Weather History for Fort Myers Airport, FL

Change the Weather History Date:

Saturday, March 2, 2013

  Actual Average Record
Temperature  
Mean Temperature 57 °F -  
Max Temperature 61 °F 78 °F 89 °F (1979)
Min Temperature 52 °F 54 °F 34 °F (1941)
Degree Days  
Heating Degree Days 8    
Growing Degree Days 7 (Base 50)    
Moisture  
Dew Point 39 °F    
Average Humidity 54    
Maximum Humidity 69    
Minimum Humidity 42    
Precipitation  
Precipitation 0.00 in - - ()
Sea Level Pressure  
Sea Level Pressure 30.03 in    
Wind  
Wind Speed 7 mph (North)    
Max Wind Speed 13 mph    
Max Gust Speed 22 mph    
Visibility 10 miles    
Events Rain    
Averages and records for this station are not official NWS values.
T = Trace of Precipitation, MM = Missing Value Source: NWS Daily Summary

Daily Weather History Graph

Daily Weather History Graph

Search for Another Location

Airport:

Trip Planner

Search our weather history database for the weather conditions in past years. The results will help you decide how hot, cold, wet, or windy it might be!

Date:

Astronomy

Mar. 02, 2013 Rise Set
Actual Time 6:49 AM EST 6:29 PM EST
Civil Twilight 6:26 AM EST 6:52 PM EST
Nautical Twilight 5:59 AM EST 7:19 PM EST
Astronomical Twilight 5:32 AM EST 7:45 PM EST
Moon 11:31 PM EST (3/2) 9:49 AM EST (3/2)
Length of Visible Light 12h 25m
Length of Day
11h 39m
Waning Gibbous, 74% of the Moon is Illuminated
Mar 2
Waning Gibbous
Mar 4
Last Quarter
Mar 11
New
Mar 19
First Quarter
Mar 27
Full

Hourly Weather History & Observations

Time (EST) Temp. Dew Point Humidity Pressure Visibility Wind Dir Wind Speed Gust Speed Precip Events Conditions
12:53 AM 57.0 °F 37.0 °F 47% 30.02 in 10.0 mi NNW 8.1 mph 18.4 mph N/A   Overcast
1:53 AM 57.0 °F 39.0 °F 51% 30.01 in 10.0 mi NNW 9.2 mph 18.4 mph N/A   Overcast
2:53 AM 55.9 °F 39.0 °F 53% 30.01 in 10.0 mi NNW 6.9 mph - N/A   Overcast
3:53 AM 55.9 °F 39.9 °F 55% 30.01 in 10.0 mi North 8.1 mph - N/A   Overcast
4:53 AM 55.0 °F 39.9 °F 57% 30.01 in 10.0 mi North 10.4 mph - N/A   Mostly Cloudy
5:53 AM 53.6 °F 39.2 °F 58% 30.03 in 10.0 mi North 8.1 mph - N/A   Mostly Cloudy
6:53 AM 53.1 °F 39.0 °F 59% 30.03 in 10.0 mi NNE 6.9 mph - N/A   Overcast
7:53 AM 53.1 °F 39.0 °F 59% 30.04 in 10.0 mi NE 6.9 mph - N/A   Clear
8:53 AM 54.0 °F 39.0 °F 57% 30.04 in 10.0 mi NE 4.6 mph - N/A   Overcast
9:53 AM 55.9 °F 39.0 °F 53% 30.05 in 10.0 mi East 3.5 mph - N/A   Clear
10:53 AM 55.9 °F 37.0 °F 49% 30.06 in 10.0 mi NNE 6.9 mph - N/A   Overcast
11:53 AM 57.9 °F 39.0 °F 49% 30.05 in 10.0 mi NNE 3.5 mph - N/A   Partly Cloudy
12:53 PM 57.9 °F 39.9 °F 51% 30.04 in 10.0 mi North 8.1 mph - N/A   Mostly Cloudy
1:53 PM 57.9 °F 42.1 °F 56% 30.02 in 10.0 mi NW 12.7 mph 21.9 mph N/A   Partly Cloudy
2:53 PM 59.0 °F 39.0 °F 48% 30.01 in 10.0 mi NW 12.7 mph 20.7 mph N/A   Partly Cloudy
3:53 PM 59.0 °F 37.0 °F 44% 29.99 in 10.0 mi NW 10.4 mph - N/A   Partly Cloudy
4:53 PM 61.0 °F 37.9 °F 42% 30.00 in 10.0 mi NW 8.1 mph - N/A   Partly Cloudy
5:53 PM 57.9 °F 39.0 °F 49% 30.01 in 10.0 mi NNW 5.8 mph - N/A   Mostly Cloudy
6:53 PM 55.9 °F 39.0 °F 53% 30.01 in 10.0 mi NNW 5.8 mph - N/A   Partly Cloudy
7:53 PM 55.4 °F 39.2 °F 54% 30.04 in 10.0 mi NNW 3.5 mph - N/A   Mostly Cloudy
8:53 PM 54.0 °F 39.9 °F 59% 30.04 in 10.0 mi Calm Calm - N/A   Partly Cloudy
9:53 PM 54.0 °F 39.9 °F 59% 30.05 in 10.0 mi NNE 3.5 mph - N/A   Overcast
10:53 PM 53.1 °F 39.9 °F 61% 30.04 in 10.0 mi Calm Calm - 0.00 in Rain Light Rain
11:53 PM 52.0 °F 42.1 °F 69% 30.03 in 10.0 mi Calm Calm - 0.00 in   Overcast